Regional Weather Roundup
Issued by NWS

Home | Current Version | Previous Version | Text Only | Print | Product List | Glossary Off
Versions: 1 2 3 4 5 6 7 8 9 10 11 12 13 14 15 16 17 18 19 20 21 22 23 24 25 26 27 28 29 30 31 32 33 34 35 36 37 38 39 40 41 42 43 44 45 46 47 48 49 50

000
ASUS43 KIND 010059
RWRIN

WEATHER ROUNDUP FOR INDIANA
NATIONAL WEATHER SERVICE INDIANAPOLIS IN
900 PM EDT FRI OCT 31 2014

NOTE: "FAIR" INDICATES FEW OR NO CLOUDS BELOW 12,000 FEET WITH NO
SIGNIFICANT WEATHER AND/OR OBSTRUCTIONS TO VISIBILITY.

* - STATION DOES NOT REPORT WEATHER SUCH AS PRECIPITATION OR FOG.

+ - STATION NOT QUALITY CONTROLLED BY THE NATIONAL WEATHER SERVICE.
    USE DATA WITH CAUTION...ESPECIALLY DEWPOINT AND RELATIVE
    HUMIDITY OBSERVATIONS.

INZ001>003-010>013-019-020-010200-
NORTHWEST INDIANA

CITY           SKY/WX    TMP DP  RH WIND       PRES   REMARKS
GARY /AIRPORT/ LGT RAIN N/A N/A N/A N30G52    30.27R
VALPARAISO     NOT AVBL

$$

LMZ046-743>745-010200-
SOUTHERN LAKE MICHIGAN

STATION/POSITION TIME  TEMP WIND        PRES
                       AIR  DIR/SP/G
                 (UTC) (F)  (DEG/KT/KT) (MB)
MICHIGAN CITY    0000   41  360/ 40/ 48   N/A

$$

INZ004-005-014>016-021>024-010200-
NORTH CENTRAL INDIANA

CITY           SKY/WX    TMP DP  RH WIND       PRES   REMARKS
ELKHART        CLOUDY    34  25  69 N12G24    30.20R WCI  25
GOSHEN         CLOUDY    35  28  75 N21G31    30.17R WCI  24
SOUTH BEND     PTCLDY    34  24  67 N23G38    30.23R WCI  22
WARSAW +       CLOUDY    34  30  86 N16G26    30.16R WCI  23

$$

INZ006>009-017-018-025>027-010200-
NORTHEAST INDIANA

CITY           SKY/WX    TMP DP  RH WIND       PRES   REMARKS
ANGOLA *+        N/A     34  12  40 N12       30.12R WCI  25
AUBURN +       CLOUDY    36  28  75 N20G29    30.12R
FORT WAYNE     CLOUDY    35  29  78 N29G40    30.11R WCI  22

$$

INZ028-029-035-036-043>045-051>053-010200-
WEST CENTRAL INDIANA

CITY           SKY/WX    TMP DP  RH WIND       PRES   REMARKS
GREENCASTLE +  LGT RAIN  34  32  93 N14       30.17R WCI  24
LAFAYETTE      CLOUDY    35  31  85 N16G28    30.21R WCI  25
TERRE HAUTE    LGT RAIN  39  29  67 N18G39    30.20R

$$

INZ030>032-037>040-046>048-054>057-064-065-010200-
CENTRAL INDIANA

CITY           SKY/WX    TMP DP  RH WIND       PRES   REMARKS
CP ATTERBURY + CLOUDY    36  32  87 N18G28    30.10R
COLUMBUS         N/A     37  36  93 N25       30.07R
FRANKFORT +    CLOUDY    35  35  99 NW17G25   30.17R WCI  25
INDIANAPOLIS   LGT SNOW  33  30  88 N23G36    30.12R FOG     WCI  21
-EAGLE CREEK   LGT SNOW  35  31  85 N20G35    30.13R FOG     WCI  24
KOKOMO *+      CLOUDY    36  28  75 N23G32    30.14R
MT COMFORT *+  CLOUDY    36  34  93 N28G33    30.10R
SHELBYVILLE    MIX PCPN  37  32  82 N22G33    30.07R
ZIONSVILLE +   CLOUDY    34  30  85 N20G32    30.14R WCI  23

$$

INZ033-034-041-042-049-050-058-059-010200-
EAST CENTRAL INDIANA

CITY           SKY/WX    TMP DP  RH WIND       PRES   REMARKS
MUNCIE         LGT SNOW  35  31  85 N18G30    30.08R FOG     WCI  24

$$

INZ060-061-067>069-081>083-085>088-010200-
SOUTHWEST INDIANA

CITY           SKY/WX    TMP DP  RH WIND       PRES   REMARKS
EVANSVILLE     CLOUDY    41  24  51 NW21G32   30.21R
HUNTINGBURG *+ CLOUDY    39  27  60 N18G35    30.15R

$$

INZ062-063-066-070>080-084-089>092-010200-
SOUTH CENTRAL AND SOUTHEAST INDIANA

CITY           SKY/WX    TMP DP  RH WIND       PRES   REMARKS
BLOOMINGTON    MIX PCPN  37  31  78 N23G39    30.12R

$$




USA.gov is the U.S. government's official web portal to all federal, state and local government web resources and services.